Weather History for New River MCAS, NC

Change the Weather History Date:

Thursday, December 12, 2013

  Actual Average Record
Temperature  
Mean Temperature 3 °C -  
Max Temperature 8 °C 13 °C 25 °C (2007)
Min Temperature -2 °C 2 °C -2 °C (1999)
Degree Days  
Heating Degree Days 28    
Moisture  
Dew Point -3 °C    
Average Humidity 66    
Maximum Humidity 96    
Minimum Humidity 37    
Precipitation  
Precipitation 0.00 mm - - ()
Sea Level Pressure  
Sea Level Pressure 1027 hPa    
Wind  
Wind Speed 8 km/h (NNW)    
Max Wind Speed 26 km/h    
Max Gust Speed 45 km/h    
Visibility 16 kilometers    
Events      
Averages and records for this station are not official NWS values.
T = Trace of Precipitation, MM = Missing Value Source: NWS Daily Summary

Daily Weather History Graph

Daily Weather History Graph

Search for Another Location

Airport:

Trip Planner

Search our weather history database for the weather conditions in past years. The results will help you decide how hot, cold, wet, or windy it might be!

Date:

Astronomy

Dec. 12, 2013 Rise Set
Actual Time 7:07 AM EST 4:59 PM EST
Civil Twilight 6:39 AM EST 5:27 PM EST
Nautical Twilight 6:08 AM EST 5:58 PM EST
Astronomical Twilight 5:37 AM EST 6:29 PM EST
Moon 1:57 PM EST (12/12) 2:36 AM EST (12/12)
Length of Visible Light 10h 47m
Length of Day
9h 51m
Waxing Gibbous, 80% of the Moon is Illuminated
Dec 12
Waxing Gibbous
Dec 17
Full
Dec 25
Last Quarter
Jan 1
New
Jan 7
First Quarter

Hourly Weather History & Observations

Time (EST) Temp. Windchill Dew Point Humidity Pressure Visibility Wind Dir Wind Speed Gust Speed Precip Events Conditions
12:56 AM 0.0 °C - -0.6 °C 96% 1025.8 hPa 16.1 km Calm Calm - N/A   Clear
1:56 AM 0.0 °C -1.8 °C -1.1 °C 92% 1025.3 hPa 16.1 km WSW 5.6 km/h / 1.5 m/s - N/A   Clear
2:56 AM 0.0 °C - -1.1 °C 92% 1025.4 hPa 16.1 km Calm Calm - N/A   Clear
3:56 AM 0.6 °C -1.8 °C -1.1 °C 89% 1025.1 hPa 16.1 km WNW 7.4 km/h / 2.1 m/s - N/A   Clear
4:56 AM 0.6 °C -1.1 °C -2.2 °C 82% 1025.1 hPa 16.1 km West 5.6 km/h / 1.5 m/s - N/A   Clear
5:56 AM 0.6 °C -1.8 °C -2.2 °C 82% 1025.4 hPa 16.1 km WNW 7.4 km/h / 2.1 m/s - N/A   Clear
6:56 AM 2.8 °C -0.2 °C -2.2 °C 70% 1026.0 hPa 16.1 km NNW 11.1 km/h / 3.1 m/s - N/A   Clear
7:56 AM 2.8 °C -0.6 °C -2.8 °C 67% 1027.0 hPa 16.1 km NNW 13.0 km/h / 3.6 m/s - N/A   Clear
8:56 AM 5.0 °C 0.8 °C -3.9 °C 53% 1028.1 hPa 16.1 km North 22.2 km/h / 6.2 m/s 33.3 km/h / 9.3 m/s N/A   Clear
9:56 AM 6.1 °C 1.9 °C -5.0 °C 45% 1028.9 hPa 16.1 km North 25.9 km/h / 7.2 m/s 44.4 km/h / 12.3 m/s N/A   Clear
10:56 AM 7.2 °C 3.6 °C -5.0 °C 42% 1028.7 hPa 16.1 km North 22.2 km/h / 6.2 m/s - N/A   Clear
11:56 AM 7.8 °C 4.4 °C -5.0 °C 40% 1028.0 hPa 16.1 km North 22.2 km/h / 6.2 m/s - N/A   Clear
12:56 PM 8.3 °C - -5.6 °C 37% 1027.2 hPa 16.1 km North 24.1 km/h / 6.7 m/s 35.2 km/h / 9.8 m/s N/A   Clear
1:56 PM 8.3 °C - -4.4 °C 41% 1026.6 hPa 16.1 km NNE 16.7 km/h / 4.6 m/s - N/A   Clear
2:56 PM 8.3 °C - -4.4 °C 41% 1026.7 hPa 16.1 km North 13.0 km/h / 3.6 m/s - N/A   Clear
3:56 PM 7.8 °C 4.8 °C -5.0 °C 40% 1027.2 hPa 16.1 km North 18.5 km/h / 5.1 m/s 27.8 km/h / 7.7 m/s N/A   Clear
4:56 PM 6.1 °C 2.9 °C -5.0 °C 45% 1028.1 hPa 16.1 km North 16.7 km/h / 4.6 m/s - N/A   Clear
5:56 PM 5.0 °C 2.8 °C -4.4 °C 51% 1028.7 hPa 16.1 km North 9.3 km/h / 2.6 m/s - N/A   Clear
6:56 PM 3.9 °C 2.0 °C -3.3 °C 60% 1029.1 hPa 16.1 km North 7.4 km/h / 2.1 m/s - N/A   Clear
7:56 PM 0.6 °C - -2.2 °C 82% 1029.4 hPa 16.1 km Calm Calm - N/A   Clear
8:56 PM 0.0 °C - -2.8 °C 82% 1029.5 hPa 16.1 km Calm Calm - N/A   Clear
9:56 PM 0.0 °C - -3.9 °C 75% 1029.4 hPa 16.1 km Calm Calm - N/A   Clear
10:56 PM -1.7 °C - -3.3 °C 89% 1029.1 hPa 16.1 km Calm Calm - N/A   Clear
11:56 PM -2.2 °C - -3.3 °C 92% 1028.5 hPa 16.1 km Calm Calm - N/A   Clear